CAPE
1 1 1 2 1 0 0 0 0 0 0 0 0 0 0 0 0 0 0 0 0 0 0 0 0 0 0 0 0 0 0 0 0 0 0 0 0 0 0 0 0 0 0 0 0 0 0
1 1 0 1 1 0 0 0 0 0 0 0 0 0 0 0 0 0 0 0 0 0 0 0 0 0 0 0 0 0 0 0 0 0 0 0 0 0 0 0 0 0 0 0 0 0 4
0 1 0 0 0 0 0 0 0 0 0 0 0 0 0 0 0 0 0 0 0 0 0 0 0 0 0 0 0 0 0 0 0 0 0 0 0 0 0 0 0 0 0 0 0 0 0
1 0 0 0 0 0 0 0 0 0 0 0 0 0 0 0 0 0 0 0 0 0 0 0 0 0 0 0 0 0 0 0 0 0 0 0 0 0 0 0 0 0 0 0 0 0 0
1 1 1 0 0 0 0 0 0 0 0 0 0 0 0 0 0 0 0 0 0 0 0 0 0 0 0 0 0 0 0 0 0 0 0 0 0 0 0 0 0 0 0 0 0 0 0
0 1 1 1 0 0 0 0 0 0 0 0 0 0 0 0 0 0 0 0 0 0 0 0 0 0 0 0 0 0 0 0 0 0 0 0 0 0 0 0 0 0 0 0 0 0 0
0 0 0 0 0 0 0 0 0 0 0 0 0 0 0 0 0 0 0 0 0 0 0 0 0 0 0 0 0 0 0 0 0 0 0 0 0 0 0 0 0 0 0 0 0 0 0
0 0 2 2 1 0 0 0 0 0 0 0 0 0 0 0 0 0 0 0 0 0 0 0 0 0 0 0 0 0 0 0 0 0 0 0 0 0 0 0 0 0 0 0 0 0 0
0 0 0 0 0 0 0 0 0 0 0 0 0 0 0 0 0 0 0 0 0 0 0 0 0 0 0 0 0 0 0 0 0 0 0 0 0 0 0 0 0 0 0 0 0 0 0
0 0 0 0 0 0 0 0 0 0 0 0 0 0 0 0 0 0 0 0 0 0 0 0 0 0 0 0 0 0 0 0 0 0 0 0 0 0 0 0 0 0 0 0 0 0 0
0 0 0 0 0 0 0 0 0 0 0 0 0 0 0 0 0 0 0 0 0 0 0 0 0 0 0 0 0 0 0 0 0 0 0 0 0 0 0 0 0 0 0 0 0 0 0
0 0 0 0 0 0 0 0 0 0 0 0 0 0 0 0 0 0 0 0 0 0 0 0 0 0 0 0 0 0 0 0 0 0 0 0 0 0 0 0 0 0 0 0 0 0 0
0 0 0 0 0 0 0 0 0 0 0 0 0 0 0 0 0 0 0 0 0 0 0 0 0 0 0 0 0 0 0 0 0 0 0 0 0 0 0 0 0 0 0 0 0 0 0
0 0 0 0 0 0 0 0 0 0 0 0 0 0 0 0 0 0 0 0 0 0 0 0 0 0 0 0 0 0 0 0 0 0 0 0 0 0 0 0 0 0 0 0 0 0 0
0 0 0 0 0 0 0 0 0 0 0 0 0 0 0 0 0 0 0 0 0 0 0 0 0 0 0 0 0 0 0 0 0 0 0 0 0 0 0 0 0 0 0 0 0 0 0
0 0 0 0 0 0 0 0 0 0 0 0 0 0 0 0 0 0 0 0 0 0 0 0 0 0 0 0 0 0 0 0 0 0 0 0 0 0 0 0 0 0 0 0 0 0 0
0 0 0 0 0 0 0 0 0 0 0 0 0 0 0 0 0 0 0 0 0 0 0 0 0 0 0 0 0 0 0 0 0 0 0 0 0 0 0 0 0 0 0 0 0 0 0
0 0 0 0 0 0 0 0 0 0 0 0 0 0 0 0 0 0 0 0 0 0 0 0 0 0 0 0 0 0 0 0 0 0 0 0 0 0 0 0 0 0 0 0 0 0 0
0 0 0 0 0 0 0 0 0 0 0 0 0 0 0 0 0 0 0 0 0 0 0 0 0 0 0 0 0 0 0 0 0 0 0 0 0 0 0 0 0 0 0 0 0 0 0
0 0 0 0 0 0 0 0 0 0 0 0 0 0 0 0 0 0 0 0 0 0 0 0 0 0 0 0 0 0 0 0 0 0 0 0 0 0 0 0 0 0 0 0 0 0 0
1 0 0 0 0 0 0 0 0 0 0 0 0 0 0 0 0 0 0 0 0 0 0 0 0 0 0 0 0 0 0 0 0 0 0 0 0 0 0 0 0 0 0 0 0 15 27
1 0 0 0 0 0 0 0 0 0 0 0 0 0 0 0 0 0 0 0 0 0 0 0 0 0 0 0 0 0 0 0 0 0 0 0 11 22 22 0 0 0 0 0 0 0 8
1 1 0 0 0 0 0 0 0 0 0 0 0 0 0 0 0 0 0 0 0 0 0 0 0 0 0 0 0 0 0 0 0 0 0 0 6 27 1 17 1 0 0 0 15 29 62
1 1 0 0 0 0 0 0 0 0 0 0 0 0 0 0 0 0 0 0 0 0 0 0 0 0 0 0 0 0 0 0 0 0 0 0 0 2 5 24 0 0 449 244 198 256 263
1 1 1 0 0 0 0 0 0 0 0 0 0 0 0 0 0 0 0 0 0 0 0 0 0 0 0 0 0 0 0 0 0 0 0 0 0 0 0 14 3 184 511 592 506 204 191
1 1 0 0 1 0 0 0 0 0 0 0 0 0 0 0 0 0 0 0 0 0 12 0 0 0 0 0 0 0 0 0 0 0 0 0 0 0 0 2 0 215 297 247 581 250 180
1 1 1 0 0 0 0 0 0 0 0 0 0 0 0 0 0 0 0 0 0 0 0 0 0 6 0 0 0 0 0 0 0 0 0 0 0 0 0 0 0 84 164 262 407 76 107
1 1 1 1 0 0 0 0 0 0 0 0 0 0 0 0 0 0 0 0 0 0 0 0 42 60 51 14 0 0 0 0 0 0 4 0 0 0 0 0 0 28 43 312 101 12 4
1 1 1 1 0 0 0 0 0 0 0 0 0 0 0 0 0 0 0 0 0 0 0 0 0 0 0 70 4 28 91 12 68 13 0 56 125 168 172 25 0 39 0 0 0 0 0
CIN
-0 -0 -0 -0 -0 -0 -0 -0 -0 -0 -0 -0 -0 -0 -0 -0 -0 -0 -0 -0 -0 -0 -0 -0 -0 -0 -0 -0 -0 -0 -0 -0 -0 -0 -0 -0 -0 -0 -0 -0 -0 -0 -0 -0 -0 -0 -0
-0 -0 -0 -0 -0 -0 -0 -0 -0 -0 -0 -0 -0 -0 -0 -0 -0 -0 -0 -0 -0 -0 -0 -0 -0 -0 -0 -0 -0 -0 -0 -0 -0 -0 -0 -0 -0 -0 -0 -0 -0 -0 -0 -0 -0 -0 -104
-0 -0 -0 -0 -0 -0 -0 -0 -0 -0 -0 -0 -0 -0 -0 -0 -0 -0 -0 -0 -0 -0 -0 -0 -0 -0 -0 -0 -0 -0 -0 -0 -0 -0 -0 -0 -0 -0 -0 -0 -0 -0 -0 -0 -0 -0 -0
-0 -0 -0 -0 -0 -0 -0 -0 -0 -0 -0 -0 -0 -0 -0 -0 -0 -0 -0 -0 -0 -0 -0 -0 -0 -0 -0 -0 -0 -0 -0 -0 -0 -0 -0 -0 -0 -0 -0 -0 -0 -0 -0 -0 -0 -0 -0
-0 -0 -0 -0 -0 -0 -0 -0 -0 -0 -0 -0 -0 -0 -0 -0 -0 -0 -0 -0 -0 -0 -0 -0 -0 -0 -0 -0 -0 -0 -0 -0 -0 -0 -0 -0 -0 -0 -0 -0 -0 -0 -0 -0 -0 -0 -0
-0 -0 -0 -0 -0 -0 -0 -0 -0 -0 -0 -0 -0 -0 -0 -0 -0 -0 -0 -0 -0 -0 -0 -0 -0 -0 -0 -0 -0 -0 -0 -0 -0 -0 -0 -0 -0 -0 -0 -0 -0 -0 -0 -0 -0 -0 -0
-0 -0 -0 -0 -0 -0 -0 -0 -0 -0 -0 -0 -0 -0 -0 -0 -0 -0 -0 -0 -0 -0 -0 -0 -0 -0 -0 -0 -0 -0 -0 -0 -0 -0 -0 -0 -0 -0 -0 -0 -0 -0 -0 -0 -0 -0 -0
-0 -0 -0 -0 -0 -0 -0 -0 -0 -0 -0 -0 -0 -0 -0 -0 -0 -0 -0 -0 -0 -0 -0 -0 -0 -0 -0 -0 -0 -0 -0 -0 -0 -0 -0 -0 -0 -0 -0 -0 -0 -0 -0 -0 -0 -0 -0
-0 -0 -0 -0 -0 -0 -0 -0 -0 -0 -0 -0 -0 -0 -0 -0 -0 -0 -0 -0 -0 -0 -0 -0 -0 -0 -0 -0 -0 -0 -0 -0 -0 -0 -0 -0 -0 -0 -0 -0 -0 -0 -0 -0 -0 -0 -0
-0 -0 -0 -0 -0 -0 -0 -0 -0 -0 -0 -0 -0 -0 -0 -0 -0 -0 -0 -0 -0 -0 -0 -0 -0 -0 -0 -0 -0 -0 -0 -0 -0 -0 -0 -0 -0 -0 -0 -0 -0 -0 -0 -0 -0 -0 -0
-0 -0 -0 -0 -0 -0 -0 -0 -0 -0 -0 -0 -0 -0 -0 -0 -0 -0 -0 -0 -0 -0 -0 -0 -0 -0 -0 -0 -0 -0 -0 -0 -0 -0 -0 -0 -0 -0 -0 -0 -0 -0 -0 -0 -0 -0 -0
-0 -0 -0 -0 -0 -0 -0 -0 -0 -0 -0 -0 -0 -0 -0 -0 -0 -0 -0 -0 -0 -0 -0 -0 -0 -0 -0 -0 -0 -0 -0 -0 -0 -0 -0 -0 -0 -0 -0 -0 -0 -0 -0 -0 -0 -0 -0
-0 -0 -0 -0 -0 -0 -0 -0 -0 -0 -0 -0 -0 -0 -0 -0 -0 -0 -0 -0 -0 -0 -0 -0 -0 -0 -0 -0 -0 -0 -0 -0 -0 -0 -0 -0 -0 -0 -0 -0 -0 -0 -0 -0 -0 -0 -0
-0 -0 -0 -0 -0 -0 -0 -0 -0 -0 -0 -0 -0 -0 -0 -0 -0 -0 -0 -0 -0 -0 -0 -0 -0 -0 -0 -0 -0 -0 -0 -0 -0 -0 -0 -0 -0 -0 -0 -0 -0 -0 -0 -0 -0 -0 -0
-0 -0 -0 -0 -0 -0 -0 -0 -0 -0 -0 -0 -0 -0 -0 -0 -0 -0 -0 -0 -0 -0 -0 -0 -0 -0 -0 -0 -0 -0 -0 -0 -0 -0 -0 -0 -0 -0 -0 -0 -0 -0 -0 -0 -0 -0 -0
-0 -0 -0 -0 -0 -0 -0 -0 -0 -0 -0 -0 -0 -0 -0 -0 -0 -0 -0 -0 -0 -0 -0 -0 -0 -0 -0 -0 -0 -0 -0 -0 -0 -0 -0 -0 -0 -0 -0 -0 -0 -0 -0 -0 -0 -0 -0
-0 -0 -0 -0 -0 -0 -0 -0 -0 -0 -0 -0 -0 -0 -0 -0 -0 -0 -0 -0 -0 -0 -0 -0 -0 -0 -0 -0 -0 -0 -0 -0 -0 -0 -0 -0 -0 -0 -0 -0 -0 -0 -0 -0 -0 -0 -0
-0 -0 -0 -0 -0 -0 -0 -0 -0 -0 -0 -0 -0 -0 -0 -0 -0 -0 -0 -0 -0 -0 -0 -0 -0 -0 -0 -0 -0 -0 -0 -0 -0 -0 -0 -0 -0 -0 -0 -0 -0 -0 -0 -0 -0 -0 -0
-0 -0 -0 -0 -0 -0 -0 -0 -0 -0 -0 -0 -0 -0 -0 -0 -0 -0 -0 -0 -0 -0 -0 -0 -0 -0 -0 -0 -0 -0 -0 -0 -0 -0 -0 -0 -0 -0 -0 -0 -0 -0 -0 -0 -0 -0 -0
-0 -0 -0 -0 -0 -0 -0 -0 -0 -0 -0 -0 -0 -0 -0 -0 -0 -0 -0 -0 -0 -0 -0 -0 -0 -0 -0 -0 -0 -0 -0 -0 -0 -0 -0 -0 -0 -0 -0 -0 -0 -0 -0 -0 -0 -0 -18
-0 -0 -0 -0 -0 -0 -0 -0 -0 -0 -0 -0 -0 -0 -0 -0 -0 -0 -0 -0 -0 -0 -0 -0 -0 -0 -0 -0 -0 -0 -0 -0 -0 -0 -0 -0 -0 -0 -0 -0 -0 -0 -0 -0 -0 -66 -15
-0 -0 -0 -0 -0 -0 -0 -0 -0 -0 -0 -0 -0 -0 -0 -0 -0 -0 -0 -0 -0 -0 -0 -0 -0 -0 -0 -0 -0 -0 -0 -0 -0 -0 -0 -0 -94 -145 -90 -0 -0 -0 -0 -0 -2 -10 -120
-0 -0 -0 -0 -0 -0 -0 -0 -0 -0 -0 -0 -0 -0 -0 -0 -0 -0 -0 -0 -0 -0 -0 -0 -0 -0 -0 -0 -0 -0 -0 -0 -0 -0 -0 -0 -125 -84 -4 -137 -11 -2 -0 -0 -123 -199 -169
-0 -0 -0 -0 -0 -0 -0 -0 -0 -0 -0 -0 -0 -0 -0 -0 -0 -0 -0 -0 -0 -0 -0 -0 -0 -0 -0 -0 -0 -0 -0 -0 -0 -0 -0 -0 -0 -112 -44 -103 -0 -0 -238 -201 -148 -259 -301
-0 -0 -0 -0 -0 -0 -0 -0 -0 -0 -0 -0 -0 -0 -0 -0 -0 -0 -0 -0 -0 -0 -0 -0 -0 -0 -0 -0 -0 -0 -0 -0 -0 -0 -0 -0 -0 -0 -21 -81 -55 -122 -188 -175 -143 -163 -412
-0 -0 -0 -0 -0 -0 -0 -0 -0 -0 -0 -0 -0 -0 -0 -0 -0 -0 -0 -0 -0 -0 -69 -0 -0 -0 -0 -0 -0 -0 -0 -0 -0 -0 -0 -0 -0 -0 -0 -78 -6 -139 -309 -444 -303 -71 -431
-0 -0 -0 -0 -0 -0 -0 -0 -0 -0 -0 -0 -0 -0 -0 -0 -0 -0 -0 -0 -0 -0 -0 -0 -0 -41 -5 -0 -0 -0 -0 -0 -0 -0 -0 -0 -0 -0 -0 -0 -0 -241 -347 -366 -72 -138 -464
-0 -0 -0 -0 -0 -0 -0 -0 -0 -0 -0 -0 -0 -0 -0 -0 -0 -0 -0 -0 -0 -0 -0 -0 -36 -99 -56 -30 -0 -0 -0 -0 -0 -0 -52 -0 -0 -0 -0 -0 -0 -291 -249 -97 -358 -511 -198
-0 -0 -0 -0 -0 -0 -0 -0 -0 -0 -0 -0 -0 -0 -0 -0 -0 -0 -0 -0 -0 -0 -0 -0 -0 -10 -2 -48 -32 -64 -17 -62 -31 -11 -0 -22 -64 -39 -63 -93 -0 -273 -0 -0 -0 -0 -0
Wind_Speed
23 24 24 25 26 26 27 27 27 28 28 29 29 30 30 30 30 30 31 32 32 32 31 30 28 26 22 20 15 17 11 10 10 3 6 7 7 7 6 8 10 6 12 8 5 6 11
24 25 26 26 27 27 28 28 29 29 30 30 31 31 32 32 32 32 33 33 33 33 32 31 28 24 21 21 16 13 10 8 5 4 4 3 6 7 6 5 7 12 12 11 18 16 15
25 26 27 27 28 28 29 29 30 30 31 32 32 33 33 34 34 35 35 35 35 34 33 28 21 20 21 24 12 10 8 9 8 7 8 7 7 4 9 7 11 13 17 24 18 21 19
26 26 27 28 29 29 30 31 31 32 32 33 33 34 35 35 36 36 37 37 36 34 28 23 13 17 21 17 12 13 11 15 11 9 12 14 11 10 6 13 12 12 14 12 16 21 22
27 28 28 29 30 30 31 31 32 33 33 34 34 35 36 37 37 37 38 38 35 25 20 14 17 18 22 17 19 14 8 14 11 13 15 14 14 10 8 10 14 14 5 11 14 20 17
28 28 29 30 30 31 32 33 33 34 34 35 35 36 37 37 37 38 39 36 24 22 19 19 18 21 20 17 15 15 12 11 13 13 14 14 13 9 10 11 6 12 11 10 11 13 22
28 29 29 30 31 31 32 33 34 35 35 36 36 36 37 37 38 37 32 24 26 25 23 23 18 20 21 20 21 16 13 10 11 12 12 15 12 12 13 11 11 15 14 12 6 14 16
25 28 29 30 31 32 33 33 34 35 36 36 36 37 37 37 37 33 25 22 20 24 31 27 28 31 26 22 25 21 13 13 11 11 12 15 16 14 13 10 12 16 18 17 23 11 16
24 26 27 30 31 32 33 34 35 35 36 37 37 37 37 37 35 22 25 18 23 21 29 30 25 27 24 16 27 23 12 15 14 13 13 18 17 14 12 15 18 17 16 17 13 18 17
25 26 28 30 31 32 33 34 35 35 36 37 36 36 35 37 23 26 21 19 27 17 31 32 25 24 19 18 28 19 10 16 18 16 15 20 20 16 15 14 12 18 15 19 15 14 17
22 24 28 29 31 32 33 34 35 36 36 37 36 35 34 29 28 24 19 25 20 17 37 24 24 19 17 20 23 23 18 21 19 16 13 17 15 11 9 11 10 16 20 20 13 12 16
21 23 27 29 31 33 34 35 36 36 36 37 37 36 34 23 23 23 23 24 14 24 35 24 20 19 22 25 27 21 19 20 22 19 21 21 17 15 16 15 12 18 18 17 14 14 17
20 21 25 28 30 33 34 35 36 37 37 37 38 37 33 24 21 19 23 17 24 31 23 24 21 20 22 22 22 21 19 19 21 21 21 22 23 21 19 19 16 15 15 16 15 15 18
17 19 22 27 30 33 35 35 36 37 37 38 39 38 26 22 21 20 15 20 31 28 29 21 22 23 22 20 20 18 19 20 20 19 20 20 23 16 16 17 18 13 14 15 17 18 21
15 17 21 25 29 32 34 35 35 36 37 38 37 27 24 21 19 18 15 25 29 27 23 28 25 23 21 18 18 18 19 19 19 17 19 17 21 19 16 17 15 13 14 15 15 18 20
14 16 19 22 28 31 33 34 35 36 36 36 31 26 23 20 12 13 18 28 26 23 22 21 26 20 21 20 18 17 14 18 22 22 22 21 23 17 14 13 17 16 11 16 16 21 21
12 13 15 20 25 29 32 33 34 35 36 32 25 23 21 16 11 16 23 26 29 23 23 23 21 22 21 19 19 18 17 16 18 18 19 18 21 17 15 13 11 12 14 15 16 17 21
9 10 12 14 22 27 30 32 33 33 34 25 23 21 18 9 16 20 23 23 22 26 25 26 24 24 24 24 21 19 17 17 17 16 18 19 20 23 19 17 19 16 16 15 19 18 16
8 7 6 9 19 25 30 31 31 30 28 26 24 18 14 16 19 21 22 22 24 27 28 29 30 26 23 24 21 20 19 15 16 15 17 14 20 23 20 17 16 17 15 15 14 16 16
4 3 3 6 12 21 29 30 29 29 26 22 20 18 15 16 18 18 18 20 23 22 29 29 32 28 25 26 23 21 19 18 17 16 15 13 17 20 25 22 19 18 15 12 13 16 16
2 1 1 3 7 18 27 28 28 27 25 20 17 18 17 16 24 22 20 19 26 25 23 23 26 29 27 28 24 24 21 19 17 17 16 16 17 17 18 20 20 20 13 9 13 18 17
1 0 1 3 5 12 24 26 26 26 23 18 18 19 19 18 18 17 16 18 22 23 23 24 27 24 29 29 24 24 21 20 20 18 17 19 20 20 20 19 20 19 16 15 16 17 20
3 1 1 1 4 10 22 25 24 24 21 18 17 16 19 19 18 15 15 16 18 21 22 25 26 27 26 30 25 22 19 18 19 20 20 20 20 22 23 21 21 21 20 20 16 15 19
4 3 3 2 2 7 19 22 22 21 19 19 18 18 19 20 20 18 19 20 22 21 20 19 18 18 16 16 14 17 19 21 22 21 21 22 21 23 25 22 24 20 19 19 13 16 18
4 4 4 3 2 3 16 18 19 19 20 20 20 17 18 20 20 21 21 20 23 20 17 17 16 16 17 15 17 20 22 21 22 22 23 22 24 27 27 26 26 22 22 21 20 20 20
4 4 5 3 3 3 14 16 19 20 20 21 21 17 18 21 17 20 22 20 19 19 20 20 17 16 15 15 17 20 22 21 22 20 18 19 22 27 25 25 26 23 21 21 21 26 24
4 5 6 4 4 4 8 16 20 20 21 21 21 18 18 23 19 19 18 19 19 18 19 18 20 20 19 19 20 21 22 20 24 24 24 23 22 25 26 28 26 23 23 17 26 27 24
5 6 6 5 4 5 7 15 17 19 21 20 22 18 19 23 27 21 19 20 19 17 17 17 15 16 16 17 19 20 22 21 22 22 23 23 24 24 23 26 28 23 20 25 24 25 26
5 6 7 6 4 5 4 10 19 18 21 20 20 18 18 22 24 25 31 31 29 27 21 18 15 16 16 15 16 16 18 19 19 22 17 21 19 21 20 20 18 18 17 19 24 29 31
Wind_Direction
322 321 321 321 321 320 318 316 315 312 310 308 306 306 305 302 300 297 297 297 299 300 301 298 295 303 317 311 337 322 17 91 118 14 109 110 110 82 69 62 39 75 35 66 210 129 80
323 322 320 320 319 318 317 316 314 313 311 308 306 304 303 302 300 297 295 295 295 298 300 302 303 306 314 308 323 345 17 59 49 9 14 71 122 110 37 50 30 11 228 237 4 36 45
325 323 321 320 319 318 316 316 315 312 310 309 307 304 302 300 299 296 294 292 293 294 297 306 324 314 309 291 338 347 14 353 347 351 338 344 2 76 1 9 359 356 351 321 356 354 13
331 327 322 320 318 317 316 315 314 313 311 309 306 304 302 301 298 296 294 290 290 291 299 309 331 320 304 320 349 320 316 311 324 338 328 328 332 338 353 333 348 353 350 359 354 350 358
330 328 327 324 320 317 315 315 314 312 311 309 307 304 302 300 298 296 295 291 288 299 307 323 314 306 300 315 306 321 326 306 321 317 320 327 324 334 346 332 328 339 358 349 347 340 1
334 329 327 325 323 320 317 314 312 312 311 309 307 305 302 300 298 296 294 292 295 296 299 303 305 295 295 302 311 314 327 315 306 311 319 321 326 338 336 324 302 330 340 342 336 354 340
343 336 330 327 323 322 320 317 314 311 309 309 307 306 303 300 298 297 299 298 289 286 287 281 293 287 292 302 295 305 318 326 310 307 310 315 320 314 316 328 333 326 323 325 317 344 348
358 344 335 331 327 323 321 319 316 313 311 309 307 306 304 300 298 297 300 292 295 292 280 282 280 278 286 297 285 288 307 303 306 293 308 308 304 315 322 333 329 326 321 316 305 343 344
360 351 346 336 332 326 321 319 316 313 310 309 308 307 305 301 296 301 295 291 304 300 281 281 281 279 283 282 276 279 288 292 297 295 295 295 303 323 316 311 313 318 320 317 309 318 336
356 353 345 337 330 329 320 318 318 314 310 307 308 308 308 304 300 299 290 295 300 298 278 273 279 283 285 281 276 283 271 282 287 289 297 302 296 293 303 307 321 317 331 323 311 315 320
358 354 345 339 333 327 321 319 317 315 311 307 304 306 307 307 295 290 294 295 301 297 268 282 275 291 287 274 285 280 279 271 269 279 292 302 308 303 296 308 325 317 322 322 322 316 322
353 352 345 340 332 325 321 319 316 315 312 307 303 302 303 307 299 291 291 293 292 271 265 280 285 284 282 276 278 284 277 272 272 272 280 287 296 300 296 302 312 315 321 324 324 324 314
347 347 345 339 335 325 319 316 316 312 311 306 301 297 294 299 294 296 289 284 266 261 279 275 278 288 289 284 279 272 265 258 256 267 270 278 282 286 288 292 301 309 317 315 312 312 312
342 345 344 339 334 325 316 314 315 314 310 306 300 294 300 294 291 288 285 261 260 267 263 283 284 288 285 289 282 272 265 260 261 268 279 272 281 286 284 280 288 294 308 312 308 310 314
337 343 341 339 332 326 316 314 314 312 311 307 302 308 300 296 284 276 268 253 262 264 275 270 279 278 284 289 286 273 264 265 262 257 271 279 284 286 295 288 280 288 295 309 315 319 317
331 336 340 338 332 327 317 316 312 311 307 306 316 307 297 297 292 268 262 258 264 270 275 280 266 277 275 283 283 277 270 275 271 267 269 275 281 294 302 296 294 285 297 301 308 306 310
327 333 338 338 331 329 317 316 315 312 309 316 322 308 307 300 280 266 261 264 264 269 273 272 273 270 274 282 282 279 273 283 284 277 271 271 273 286 296 293 291 298 291 301 311 311 307
329 333 340 345 335 331 318 315 316 315 314 326 320 303 308 300 275 270 267 269 277 270 269 268 272 272 271 277 277 276 275 281 296 285 277 271 276 275 280 289 289 294 294 299 295 305 310
321 327 344 348 336 325 311 313 314 315 321 317 305 311 302 292 277 273 275 277 276 272 266 263 263 267 272 270 270 271 273 285 302 297 289 282 274 274 282 287 290 288 293 297 303 307 303
321 325 337 349 348 326 307 316 314 319 307 320 307 302 298 282 282 282 283 282 279 281 269 265 261 264 266 263 265 271 271 277 292 303 306 293 284 277 274 281 288 283 289 292 296 299 305
302 329 13 13 2 337 308 314 312 314 302 310 308 309 290 288 264 277 288 295 278 277 274 272 263 257 256 259 261 263 269 276 283 298 298 293 286 286 290 285 286 285 289 287 287 297 300
216 115 124 17 13 349 316 315 306 305 299 305 301 308 288 282 284 293 295 299 285 274 270 267 262 268 252 254 260 261 267 272 276 287 295 293 284 286 287 289 287 288 287 291 291 295 294
195 167 140 51 21 360 317 312 306 304 300 297 309 315 281 275 285 296 294 299 292 281 268 264 267 266 255 249 265 268 272 276 280 284 290 291 287 283 279 287 284 283 286 285 291 298 295
191 168 137 96 65 7 322 319 317 319 297 290 294 300 280 274 277 283 279 295 277 273 273 274 277 265 266 268 275 279 276 277 280 284 287 287 288 284 279 284 281 285 296 291 293 297 300
188 176 149 126 107 34 325 326 316 321 281 282 284 294 285 274 276 270 275 288 273 280 271 273 281 280 278 276 273 272 273 278 283 286 285 285 280 276 277 276 282 282 282 283 284 287 301
189 179 163 134 109 99 321 323 305 299 285 283 281 284 289 273 282 278 276 283 288 282 263 273 281 284 283 280 278 272 271 277 280 285 296 288 282 275 279 278 278 282 295 296 291 281 299
191 179 166 147 129 112 338 314 299 296 286 284 279 284 285 268 283 278 285 279 286 285 271 275 272 274 285 283 283 284 282 290 282 282 284 288 287 279 277 278 282 294 296 298 276 285 306
192 181 168 151 128 129 335 314 313 298 284 286 278 283 283 271 261 276 289 271 276 288 279 294 288 293 294 292 289 288 287 290 290 291 289 287 285 283 285 281 280 298 292 283 294 301 306
189 185 172 160 132 127 344 329 300 307 285 287 281 287 287 280 272 275 257 240 237 244 268 284 289 294 300 305 306 309 302 302 299 290 303 290 295 291 291 294 306 309 308 306 305 298 299